Regional Weather Roundup
Issued by NWS

Home | Current Version | Previous Version | Text Only | Print | Product List | Glossary Off
Versions: 1 2 3 4 5 6 7 8 9 10 11 12 13 14 15 16 17 18 19 20 21 22 23 24 25 26 27 28 29 30 31 32 33 34 35 36 37 38 39 40 41 42 43 44 45 46 47 48 49 50

000
ASUS45 KBOI 051610
RWRID
WEATHER ROUNDUP FOR IDAHO
NATIONAL WEATHER SERVICE BOISE ID
900 AM MST THU MAR 05 2015

NOTE: "FAIR" INDICATES FEW OR NO CLOUDS BELOW 12000 FEET
WITH NO SIGNIFICANT WEATHER AND/OR OBSTRUCTIONS TO VISIBILITY

IDZ012-014-051700-
SOUTHWEST IDAHO


CITY           SKY/WX    TMP DP  RH WIND       PRES   REMARKS
BOISE          SUNNY     34  17  50 CALM      30.41R
CALDWELL       SUNNY     28  12  50 CALM      30.44R
MOUNTAIN HOME  MOSUNNY   27  15  61 E12       30.41R WCI  16
$$

IDZ016-017-051700-
SOUTHCENTRAL IDAHO


CITY           SKY/WX    TMP DP  RH WIND       PRES   REMARKS
JEROME         MOSUNNY   32  15  49 E3        30.40R
TWIN FALLS     MOSUNNY   36  16  44 S10       30.39R WCI  28
$$

IDZ019>023-051700-
SOUTHEAST IDAHO


CITY           SKY/WX    TMP DP  RH WIND       PRES   REMARKS
IDAHO FALLS    MOSUNNY   26  16  65 CALM      30.41R
POCATELLO      SUNNY     31  21  66 N7        30.40R WCI  24
REXBURG        MOSUNNY   17  10  74 E5        30.41R WCI  10
$$

IDZ006-010-011-018-031-032-051700-
CENTRAL IDAHO MOUNTAINS


CITY           SKY/WX    TMP DP  RH WIND       PRES   REMARKS
MCCALL         MOSUNNY   19  12  74 CALM      30.34R
HAILEY         MOSUNNY   23  12  63 NW7       30.37R WCI  15
STANLEY          N/A      9   0  67 CALM      30.38R
SALMON         MOSUNNY   19  12  73 CALM      30.40R
CHALLIS        SUNNY     25   9  50 CALM      30.36R
$$

IDZ002-004-006-007-026-051700-
NORTHERN IDAHO


CITY           SKY/WX    TMP DP  RH WIND       PRES   REMARKS
LEWISTON       PTSUNNY   31  21  66 N3        30.36R
LOWELL           N/A     26  19  74 N6        30.47R WCI  19
COEUR D`ALENE  SUNNY     30  19  64 NE10      30.32R WCI  21
MULLAN PASS    SUNNY     27   0  31 VRB7      30.20R WCI  19
$$


USA.gov is the U.S. government's official web portal to all federal, state and local government web resources and services.